Regional Weather Roundup
Issued by NWS

Home | Current Version | Previous Version | Graphics & Text | Print | Product List | Glossary On
Versions: 1 2 3 4 5 6 7 8 9 10 11 12 13 14 15 16 17 18 19 20 21 22 23 24 25 26 27 28 29 30 31 32 33 34 35 36 37 38 39 40 41 42 43 44 45 46 47 48 49 50
000
ASUS43 KLSX 251659
RWRMO

WEATHER SUMMARY FOR MISSOURI
NATIONAL WEATHER SERVICE SPRINGFIELD MO
1100 AM CST THU DEC 25 2014

NOTE: "FAIR" INDICATES FEW OR NO CLOUDS BELOW 12,000 FEET WITH NO
       SIGNIFICANT WEATHER AND/OR OBSTRUCTIONS TO VISIBILITY.
       CURRENT SKY AND/OR WEATHER CONDITIONS ARE NOT AVAILABLE FOR
       CHILLICOTHE AND FARMINGTON.

MOZ001>031-035>038-043-044-053-054-251800-
...NORTHERN AND WESTERN MISSOURI...

CITY           SKY/WX    TMP DP  RH WIND       PRES   REMARKS
KANSAS CTY INT MOSUNNY   44  30  57 S21G32    29.78S
KANSAS C DTWN  SUNNY     46  30  53 S14G25    29.81F
LEE`S SUMMIT   SUNNY     44  29  55 S20G31    29.83R
ST JOSEPH      SUNNY     45  30  55 S17       29.77F
CHILLICOTHE      N/A     44  30  57 S16       29.85R
KIRKSVILLE     MOSUNNY   43  31  62 S18G26    29.87F

$$
MOZ066>068-077>081-088>096-101>105-251800-
...SOUTHWEST MISSOURI...

CITY           SKY/WX    TMP DP  RH WIND       PRES   REMARKS
SPRINGFIELD    SUNNY     44  31  60 S20       29.96S
JOPLIN         SUNNY     49  27  42 S25G32    29.89F

$$
MOZ032>034-039>042-045>050-055>058-069>072-251800-
...CENTRAL MISSOURI...

CITY           SKY/WX    TMP DP  RH WIND       PRES   REMARKS
COLUMBIA       SUNNY     43  33  68 S15       29.95F
JEFFERSON CITY SUNNY     44  31  60 S12       29.98F
ROLLA          SUNNY     43  31  62 S14       29.97F
SEDALIA        MOSUNNY   46  30  53 S20G28    29.90F
WARRENSBURG    SUNNY     45  30  57 S16G28    29.87S
OSAGE BEACH    MOSUNNY   45  30  57 S14       29.97S

$$
MOZ051-052-059>065-251800-
...EAST CENTRAL MISSOURI...

CITY           SKY/WX    TMP DP  RH WIND       PRES   REMARKS
ST LOUIS INTL  MOSUNNY   47  32  56 S8        30.04F
SPIRIT OF STL  SUNNY     45  32  60 S9        30.02F
ST CHARLES     SUNNY     44  34  67 S12       30.03F

$$
MOZ072>076-082>087-097>100-106>115-251800-
...SOUTH CENTRAL AND SOUTHEAST MISSOURI...

CITY           SKY/WX    TMP DP  RH WIND       PRES   REMARKS
CAPE GIRARDEAU MOSUNNY   44  37  76 S15       30.14S
FARMINGTON     SUNNY     43  34  70 SE14      30.08S
POPLAR BLUFF   SUNNY     45  33  63 S15       30.13F
WEST PLAINS    SUNNY     43  31  62 S13       30.05S

$$


USA.gov is the U.S. government's official web portal to all federal, state and local government web resources and services.